Miscellaneous Local Product
Issued by NWS North Platte, NE

Home | Current Version | Previous Version | Text Only | Print | Product List | Glossary On
Versions: 1 2 3 4 5 6 7 8 9 10 11 12 13 14 15 16 17 18 19 20 21 22 23 24 25 26 27 28 29 30 31 32 33 34 35 36 37 38 39 40 41 42 43 44 45 46 47 48 49 50
000
AXUS43 KLBF 252310
MISLBF


WESTERN AND NORTH CENTRAL NEBRASKA HOURLY WEATHER ROUNDUP
NATIONAL WEATHER SERVICE NORTH PLATTE NE
600 PM CDT THU AUG 25 2016

NOTE: "FAIR" INDICATES FEW OR NO CLOUDS BELOW 12,000 FEET WITH NO
SIGNIFICANT WEATHER AND/OR OBSTRUCTIONS TO VISIBILITY.

NOTE: STATIONS NOT REPORTING VARIABLES SUCH AS SKY/WEATHER OR
PRESSURE ARE PROVIDED BY RAWS AND APRS NETWORKS AND ARE NOT UNDER
NATIONAL WEATHER SERVICE QUALITY CONTROL.

...OBSERVATIONS IN AND NEAR THE EASTERN PANHANDLE OF NEBRASKA...

CITY           SKY/WX    TMP DP  RH WIND       PRES   REMARKS
PINE RIDGE     SUNNY     66  48  52 CALM      30.23F
CHADRON        CLOUDY    67  47  48 NE3       30.22S
ALLIANCE       MOSUNNY   69  44  40 NE5       30.21F
SIDNEY         MOSUNNY   73  42  32 SE10      30.22S
CRESCENT LAKE    N/A     72  45  37 CALM        N/A
$$

...OBSERVATIONS IN NORTHERN NEBRASKA AND FAR SOUTHERN SOUTH DAKOTA...

CITY           SKY/WX    TMP DP  RH WIND       PRES   REMARKS
WINNER         FAIR      74  46  36 NW14      30.18S
VALENTINE      SUNNY     72  45  37 NW9       30.20S
THEDFORD       MOSUNNY   75  48  37 NE3       30.20S
AINSWORTH      SUNNY     72  50  45 N5        30.19S
O`NEILL        SUNNY     76  46  35 NW7       30.17S
ORD            SUNNY     78  49  35 VRB5      30.14F
BROKEN BOW     SUNNY     76  51  41 NE6       30.16F
VALENTINE NWR    N/A     74  47  38 N5          N/A
BUTTE            N/A     71  52  50 W8G15       N/A
HALSEY           N/A     77  46  32 NE5         N/A
EWING            N/A     75  54  47 N3          N/A
$$

...OBSERVATIONS IN SOUTHWEST NEBRASKA AND FAR NORTHEAST COLORADO...

CITY           SKY/WX    TMP DP  RH WIND       PRES   REMARKS
WRAY           FAIR      79  37  22 E13G18    30.16F
HOLYOKE        FAIR      79  43  27 E8G16     30.17F
IMPERIAL       SUNNY     78  43  28 E8        30.15F
OGALLALA       SUNNY     77  44  30 SE8       30.17S
NORTH PLATTE   SUNNY     79  50  36 SE8       30.15F
MCCOOK         SUNNY     78  51  38 E12       30.13F
LEXINGTON      SUNNY     78  48  34 E7        30.14F
STAPLETON        N/A     76  52  42 CALM        N/A
GOTHENBURG       N/A     78  48  34 E3          N/A
CALLAWAY         N/A     77  55  45 E6          N/A
$$

...OBSERVATIONS IN CENTRAL LINCOLN COUNTY AREA...

CITY           SKY/WX    TMP DP  RH WIND       PRES   REMARKS
N.P. AIRPORT   SUNNY     79  50  36 SE8       30.15F
N.P. DOWNTOWN    N/A     77  53  42 CALM        N/A
N.P. HILLCREST   N/A     78  52  39 S5          N/A
$$

...SOME OBSERVATIONS FROM AROUND THE REGION...

CITY           SKY/WX    TMP DP  RH WIND       PRES   REMARKS
DENVER         LGT RAIN  56  51  84 NW12      30.27R
LARAMIE        CLOUDY    61  38  42 S22G32    30.25S
CHEYENNE       CLOUDY    67  37  33 S13G21    30.23F
SCOTTSBLUFF    SUNNY     71  46  40 E10       30.20F
RAPID CITY     SUNNY     69  40  34 NW8       30.21F
BISMARCK       CLOUDY    67  47  48 W9        30.14F
PIERRE         SUNNY     70  46  42 N13       30.14F
SIOUX FALLS    MOSUNNY   74  54  49 NW8       30.13S
OMAHA          PTSUNNY   78  61  55 N6        30.11F
GRAND ISLAND   MOSUNNY   77  55  46 E9        30.14F
KANSAS CITY    PTSUNNY   78  68  71 N14       30.04F
WICHITA        MOSUNNY   83  67  58 N8G16     30.03F
OKLAHOMA CITY  MOSUNNY   93  66  40 SE9       29.97F HX  96
DALLAS         MOSUNNY   95  61  32 VRB6      29.96F HX  95
AMARILLO       TSTM      69  62  78 E14       30.10S
DODGE CITY     MOSUNNY   77  61  57 NE9       30.10F
HAYS           SUNNY     77  55  47 NE7       30.11S
GOODLAND       SUNNY     75  46  35 E13       30.15F
$$




USA.gov is the U.S. government's official web portal to all federal, state and local government web resources and services.